Regional Weather Roundup
Issued by NWS

Home | Current Version | Previous Version | Graphics & Text | Print | Product List | Glossary On
Versions: 1 2 3 4 5 6 7 8 9 10 11 12 13 14 15 16 17 18 19 20 21 22 23 24 25 26 27 28 29 30 31 32 33 34 35 36 37 38 39 40 41 42 43 44 45 46 47 48
000
ASUS45 KTFX 191510
RWRMT
MONTANA REGIONAL WEATHER ROUNDUP
NATIONAL WEATHER SERVICE GREAT FALLS MT
900 AM MDT TUE SEP 19 2017

NOTE: "FAIR" INDICATES FEW OR NO CLOUDS BELOW 12000 FEET WITH NO
SIGNIFICANT WEATHER AND/OR OBSTRUCTIONS TO VISIBILITY.

MTZ001>007-043-191600-
WEST OF THE DIVIDE

CITY           SKY/WX    TMP DP  RH WIND       PRES   REMARKS
KALISPELL      CLOUDY    42  40  92 CALM      29.71S
MISSOULA       PTSUNNY   41  40  96 CALM      29.75S
BUTTE          CLOUDY    39  36  89 CALM      29.74S
MULLAN PASS    SNOW      31  30  96 VRB3      29.69F VSB 1/4
ANACONDA         N/A     41  30  65 W10       29.74S
DEER LODGE       N/A     37  37 100 CALM      29.76R
HAMILTON         N/A     41  37  87 CALM      29.75S
LIBBY            N/A     41  41 100 CALM      29.71S
$$

MTZ008-052>055-191600-
SOUTHWEST MONTANA

CITY           SKY/WX    TMP DP  RH WIND       PRES   REMARKS
BOZEMAN        CLOUDY    40  37  89 S9        29.74R
DILLON         CLOUDY    41  34  76 SW14      29.73S
W YELLOWSTONE  CLOUDY    34  32  93 S6        29.76R WCI  29
ENNIS          CLOUDY    39  37  93 S5        29.78F
$$

MTZ009-010-012-014-046-048-049-054-191600-
EAST SLOPES AND CENTRAL MONTANA

CITY           SKY/WX    TMP DP  RH WIND       PRES   REMARKS
CUT BANK       SUNNY     44  34  67 W10       29.62F
GREAT FALLS    CLOUDY    44  33  65 SW13      29.64S
MALMSTROM AFB  CLOUDY    45  35  67 SW16      29.65S
HELENA         MOSUNNY   49  34  56 W10       29.70F
BOWMANS CRNR     N/A     41  33  71 SW15      29.64S
CHOTEAU          N/A     46  32  57 SW5       29.64S
FAIRFIELD        N/A     45  31  58 SW8       29.63S
POWER            N/A     41  34  75 SW7       29.63S
RAYNESFORD     PTSUNNY   46  30  52 SW16      29.65S
ULM            PTSUNNY   47  33  59 SW15      29.65F
$$

MTZ011-013-016-021-045-047-050-051-191600-
NORTH CENTRAL MONTANA

CITY           SKY/WX    TMP DP  RH WIND       PRES   REMARKS
HAVRE          CLOUDY    46  38  73 W8        29.61R
LEWISTOWN      CLOUDY    45  36  70 W7        29.64S
N BAR RANCH    PTSUNNY   43  34  70 NW6G13    29.66S
CHINOOK          N/A     46  37  71 W13       29.60R
DENTON           N/A     48  35  60 W17       29.59S
GEYSER         PTSUNNY   46  32  58 W14       29.63S
GRASS RANGE    CLOUDY    48  33  57 W8        29.60S
JUDITH GAP     PTSUNNY   45  30  55 CALM      29.64S
WINIFRED       CLOUDY    45  37  73 W7        29.61F
$$

MTZ017>020-022>027-061-062-191600-
NORTHEAST MONTANA

CITY           SKY/WX    TMP DP  RH WIND       PRES   REMARKS
GLASGOW        CLOUDY    50  45  83 W10       29.52R
JORDAN           N/A     50  42  74 W14       29.57R
SIDNEY         CLOUDY    56  49  77 W18       29.44R
WOLF POINT     LGT RAIN  53  50  89 W8        29.50R
MALTA          PTSUNNY   48  41  76 W13       29.56S
PLENTYWOOD       N/A     55  52  88 CALM      29.40F
POPLAR           N/A     54  52  94 W13G18    29.47R
$$

MTZ028>42-056>058-191600-
SOUTHCENTRAL AND SOUTHEAST MONTANA

CITY           SKY/WX    TMP DP  RH WIND       PRES   REMARKS
BAKER          LGT RAIN  55  48  77 W12       29.53R
BILLINGS       CLOUDY    46  42  86 SW8       29.66R
LIVINGSTON     LGT RAIN  40  36  86 W12       29.72R
MILES CITY     CLOUDY    54  45  71 NW13      29.57R
BIG TIMBER     PTSUNNY   41  37  87 W16G25    29.71R
HARLOWTON      PTSUNNY   45  33  63 MISG      29.65S
LAUREL           N/A     46  43  87 SW7       29.68R
$$

REGIONAL REPORTS...DAKOTAS

CITY           SKY/WX    TMP DP  RH WIND       PRES   REMARKS
WILLISTON      CLOUDY    59  51  75 W3        29.40F
MINOT          CLOUDY    61  59  93 E22G30    29.45F
DICKINSON      CLOUDY    61  49  64 SW8       29.46R
BEACH          PTSUNNY   55  50  82 W14       29.53R
CROSBY         PTSUNNY   54  52  94 E8        29.42F
TIOGA          PTSUNNY   59  59 100 SE16G23   29.43S
WATFORD CITY     N/A     59  52  77 S10       29.43R
BISMARCK       CLOUDY    65  45  48 S12G28    29.51S
GRAND FORKS    CLOUDY    61  61 100 SE20G25   29.71F FOG
FARGO          CLOUDY    64  63  96 SE13      29.72F
BUFFALO SD       N/A     61  45  55 NW9       29.47R
RAPID CITY     SUNNY     63  48  59 NE6       29.55R
$$

REGIONAL REPORTS...WYOMING/IDAHO/WASHINGTON

CITY           SKY/WX    TMP DP  RH WIND       PRES   REMARKS
GILLETTE       CLOUDY    55  47  74 E3        29.58F
SHERIDAN       LGT RAIN  48  45  89 NW18      29.66R
BUFFALO WY     CLOUDY    49  39  68 NW18G25   29.65R
CODY           CLOUDY    42  38  85 NE6       29.67F
YELLOWSTONE LA   N/A     31  30  96 VRB7G21   29.76R WCI  24
IDAHO FALLS    PTSUNNY   41  37  86 SW18G28   29.83R
SALMON         LGT RAIN  43  40  89 SE5       29.79S
BOISE          CLOUDY    49  42  77 SE5       29.88R
SPOKANE        LGT RAIN  45  44  97 SW14      29.71R
$$

REGIONAL REPORTS...ALBERTA

CITY           SKY/WX    TMP DP  RH WIND       PRES   REMARKS
EDMONTON       RAIN      39  39 100 W18       29.40S WCI  30
CALGARY        MOSUNNY   39  30  70 SW8       29.56S
LETHBRIDGE     MOSUNNY   41  32  70 SW9       29.59F
MEDICINE HAT   MOSUNNY   41  37  87 W9        29.57S
$$

REGIONAL REPORTS...SASKATCHEWAN

CITY           SKY/WX    TMP DP  RH WIND       PRES   REMARKS
SWIFT CURRENT  MOSUNNY   46  43  87 W9        29.48R
REGINA         LGT RAIN  52  50  93 E10       29.45F FOG
SASKATOON      CLOUDY    54  52  94 SE10      29.46F
$$



USA.gov is the U.S. government's official web portal to all federal, state and local government web resources and services.